User: anonymous   Login
Location: San Martino di Castrozza
(46.2667°N, 11.8000°E)
Time: 00:52:23
(UTC+00:00)
Language:

Cosmos 2218 Rocket - Orbit

View from above orbital plane
View from above orbital plane
View from above satellite
View from above satellite

Ground track
Ground track

The orbit data is extracted from the following two-line orbital elements,

1 22208U 92073B   21169.53033112  .00000035  00000-0  20813-4 0  9998
2 22208  82.9186  15.5581 0032937 279.9441 140.2403 13.75163006436723
Epoch (UTC): 18 June 2021 12:43:40
Eccentricity: 0.0032937
inclination: 82.9186°
perigee height: 957 km
apogee height: 1005 km
right ascension of ascending node: 15.5581°
argument of perigee: 279.9441°
revolutions per day: 13.75163006
mean anomaly at epoch: 140.2403°
orbit number at epoch: 43672

The dashed part of the orbit path shows where the satellite is in the earth's shadow,  

DLR